Retour au catalogue

STARLINK-35313

ActifCommunicationsVLEO
NORAD 65758·PAYLOAD·🇺🇸 United States

Lancé Sep 25, 2025 depuis Cape Canaveral Space Force Station

Loading…

Prochains Passages (prochaines 24 heures)

TLE

FraisSource: CelesTrak SupGP

Époque: Sep 15, 2026, 02:40 UTC

1 65758C 25216AA  26258.11159722 -.00036845  00000+0 -10885-2 0  2587
2 65758  53.1573 170.9250 0001311  80.4265 321.3113 15.34412066    19

Suivez STARLINK-35313 en temps réel avec AllMySat

Download on the App Store